• In Deutschland
  • Länderverzeichnis
  • Für 7 Tage
  • Wassertemperatur
  • Satellitenkarten
  • Wetterkarte
  • Widgets
  • user-avatar
    Anmelden

    Stündliche Wetter Rüsselsheim

    Heute, 26 September, Mittwoch

    Zeit Temperatur Niederschläge Wind Luftdruck Luftfeuchtigkeit
    00:00 +9°C° 0 mm 1 m/S 769 mmHg 65%
    01:00 +9°C° 0 mm 1 m/S 769 mmHg 61%
    02:00 +8°C° 0 mm 1 m/S 769 mmHg 61%
    03:00 +8°C° 0 mm 1 m/S 768 mmHg 61%
    04:00 +8°C° 0 mm 1 m/S 768 mmHg 62%
    05:00 +8°C° 0 mm 1 m/S 768 mmHg 62%
    06:00 +8°C° 0 mm 1 m/S 768 mmHg 62%
    07:00 +8°C° 0 mm 1 m/S 768 mmHg 59%
    08:00 +10°C° 0 mm 1 m/S 768 mmHg 54%
    09:00 +12°C° 0 mm 1 m/S 768 mmHg 48%
    10:00 +13°C° 0 mm 1 m/S 768 mmHg 42%
    11:00 +15°C° 0 mm 1 m/S 768 mmHg 38%
    12:00 +18°C° 0 mm 1 m/S 767 mmHg 34%
    13:00 +20°C° 0 mm 1 m/S 767 mmHg 31%
    14:00 +20°C° 0 mm 1 m/S 766 mmHg 31%
    15:00 +20°C° 0 mm 1 m/S 766 mmHg 31%
    16:00 +21°C° 0 mm 1 m/S 766 mmHg 32%
    17:00 +19°C° 0 mm 1 m/S 766 mmHg 36%
    18:00 +16°C° 0 mm 1 m/S 766 mmHg 41%
    19:00 +13°C° 0 mm 0 m/S 766 mmHg 45%
    20:00 +13°C° 0 mm 0 m/S 766 mmHg 46%
    21:00 +12°C° 0 mm 0 m/S 766 mmHg 48%
    22:00 +12°C° 0 mm 0 m/S 767 mmHg 49%
    23:00 +12°C° 0 mm 0 m/S 767 mmHg 50%

    Morgen, 27 September, Donnerstag

    Zeit Temperatur Niederschläge Wind Luftdruck Luftfeuchtigkeit
    00:00 +11°C° 0 mm 0 m/S 767 mmHg 51%
    01:00 +11°C° 0 mm 0 m/S 766 mmHg 52%
    02:00 +11°C° 0 mm 0 m/S 766 mmHg 53%
    03:00 +10°C° 0 mm 0 m/S 766 mmHg 54%
    04:00 +10°C° 0 mm 0 m/S 766 mmHg 54%
    05:00 +10°C° 0 mm 0 m/S 765 mmHg 55%
    06:00 +10°C° 0 mm 0 m/S 765 mmHg 55%
    07:00 +10°C° 0 mm 0 m/S 765 mmHg 55%
    08:00 +13°C° 0 mm 1 m/S 765 mmHg 50%
    09:00 +16°C° 0 mm 1 m/S 765 mmHg 44%
    10:00 +19°C° 0 mm 1 m/S 764 mmHg 39%
    11:00 +21°C° 0 mm 1 m/S 764 mmHg 36%
    12:00 +22°C° 0 mm 1 m/S 763 mmHg 33%
    13:00 +24°C° 0 mm 2 m/S 763 mmHg 30%
    14:00 +24°C° 0 mm 2 m/S 762 mmHg 32%
    15:00 +24°C° 0 mm 2 m/S 761 mmHg 34%
    16:00 +24°C° 0 mm 2 m/S 760 mmHg 35%
    17:00 +22°C° 0 mm 1 m/S 760 mmHg 41%
    18:00 +20°C° 0 mm 1 m/S 760 mmHg 46%
    19:00 +18°C° 0 mm 1 m/S 759 mmHg 52%
    20:00 +16°C° 0 mm 1 m/S 760 mmHg 56%
    21:00 +16°C° 0 mm 1 m/S 760 mmHg 59%
    22:00 +15°C° 0 mm 1 m/S 760 mmHg 63%
    23:00 +15°C° 0 mm 1 m/S 759 mmHg 67%

    übermorgen, 28 September, Freitag

    Zeit Temperatur Niederschläge Wind Luftdruck Luftfeuchtigkeit
    00:00 +14°C° 0 mm 1 m/S 759 mmHg 70%
    01:00 +13°C° 0 mm 1 m/S 759 mmHg 74%
    02:00 +13°C° 0 mm 1 m/S 759 mmHg 76%
    03:00 +13°C° 0 mm 1 m/S 759 mmHg 78%
    04:00 +12°C° 0 mm 1 m/S 758 mmHg 80%
    05:00 +12°C° 0 mm 1 m/S 758 mmHg 81%
    06:00 +12°C° 0 mm 1 m/S 759 mmHg 81%
    07:00 +12°C° 0 mm 1 m/S 759 mmHg 82%
    08:00 +13°C° 0 mm 1 m/S 759 mmHg 74%
    09:00 +15°C° 0 mm 1 m/S 759 mmHg 66%
    10:00 +17°C° 0 mm 2 m/S 759 mmHg 59%
    11:00 +18°C° 0 mm 2 m/S 759 mmHg 58%
    12:00 +18°C° 0 mm 3 m/S 759 mmHg 58%
    13:00 +19°C° 0 mm 3 m/S 759 mmHg 58%
    14:00 +18°C° 0 mm 3 m/S 759 mmHg 61%
    15:00 +18°C° 0 mm 4 m/S 759 mmHg 63%
    16:00 +17°C° 0 mm 4 m/S 759 mmHg 66%
    17:00 +15°C° 0 mm 4 m/S 759 mmHg 67%
    18:00 +14°C° 0 mm 3 m/S 760 mmHg 68%
    19:00 +13°C° 0 mm 3 m/S 760 mmHg 69%
    20:00 +12°C° 0 mm 3 m/S 761 mmHg 70%
    21:00 +11°C° 0 mm 3 m/S 761 mmHg 70%
    22:00 +10°C° 0 mm 3 m/S 762 mmHg 70%
    23:00 +10°C° 0 mm 3 m/S 762 mmHg 72%

    29 September, Samstag

    Zeit Temperatur Niederschläge Wind Luftdruck Luftfeuchtigkeit
    00:00 +9°C° 0 mm 3 m/S 763 mmHg 75%
    01:00 +8°C° 0 mm 3 m/S 763 mmHg 77%
    02:00 +8°C° 0 mm 2 m/S 763 mmHg 79%
    03:00 +8°C° 0 mm 2 m/S 763 mmHg 80%
    04:00 +7°C° 0 mm 2 m/S 763 mmHg 81%
    05:00 +7°C° 0 mm 2 m/S 764 mmHg 82%
    06:00 +7°C° 0 mm 2 m/S 764 mmHg 82%
    07:00 +7°C° 0 mm 2 m/S 764 mmHg 82%
    08:00 +8°C° 0 mm 2 m/S 764 mmHg 74%
    09:00 +10°C° 0 mm 3 m/S 764 mmHg 66%
    10:00 +12°C° 0 mm 3 m/S 764 mmHg 58%
    11:00 +13°C° 0 mm 3 m/S 764 mmHg 53%
    12:00 +14°C° 0 mm 3 m/S 763 mmHg 48%
    13:00 +16°C° 0 mm 3 m/S 763 mmHg 43%
    14:00 +16°C° 0 mm 3 m/S 762 mmHg 43%
    15:00 +17°C° 0 mm 3 m/S 762 mmHg 43%
    16:00 +17°C° 0 mm 3 m/S 762 mmHg 43%
    17:00 +14°C° 0 mm 3 m/S 762 mmHg 48%
    18:00 +13°C° 0 mm 3 m/S 762 mmHg 53%
    19:00 +11°C° 0 mm 3 m/S 762 mmHg 58%
    20:00 +11°C° 0 mm 3 m/S 762 mmHg 59%
    21:00 +10°C° 0 mm 3 m/S 762 mmHg 60%
    22:00 +9°C° 0 mm 3 m/S 762 mmHg 62%
    23:00 +9°C° 0 mm 2 m/S 762 mmHg 63%

    30 September, Sonntag

    Zeit Temperatur Niederschläge Wind Luftdruck Luftfeuchtigkeit
    00:00 +8°C° 0 mm 2 m/S 761 mmHg 64%
    01:00 +8°C° 0 mm 2 m/S 761 mmHg 66%
    02:00 +8°C° 0 mm 2 m/S 760 mmHg 67%
    03:00 +7°C° 0 mm 2 m/S 760 mmHg 67%
    04:00 +7°C° 0 mm 2 m/S 760 mmHg 68%
    05:00 +7°C° 0 mm 2 m/S 760 mmHg 68%
    06:00 +6°C° 0 mm 2 m/S 759 mmHg 68%
    07:00 +6°C° 0 mm 2 m/S 759 mmHg 68%
    08:00 +8°C° 0 mm 2 m/S 759 mmHg 62%
    09:00 +10°C° 0 mm 2 m/S 758 mmHg 55%
    10:00 +12°C° 0 mm 3 m/S 758 mmHg 49%
    11:00 +14°C° 0 mm 2 m/S 757 mmHg 45%
    12:00 +16°C° 0 mm 2 m/S 757 mmHg 42%
    13:00 +17°C° 0 mm 2 m/S 756 mmHg 38%
    14:00 +18°C° 0 mm 2 m/S 756 mmHg 38%
    15:00 +18°C° 0 mm 2 m/S 755 mmHg 38%
    16:00 +18°C° 0 mm 2 m/S 755 mmHg 39%
    17:00 +16°C° 0 mm 1 m/S 755 mmHg 44%
    18:00 +15°C° 0 mm 1 m/S 754 mmHg 49%
    19:00 +13°C° 0 mm 1 m/S 754 mmHg 55%
    20:00 +12°C° 0 mm 1 m/S 754 mmHg 57%
    21:00 +12°C° 0 mm 1 m/S 754 mmHg 59%
    22:00 +11°C° 0 mm 1 m/S 754 mmHg 61%
    23:00 +11°C° 0 mm 1 m/S 754 mmHg 61%

    1 Oktober, Montag

    Zeit Temperatur Niederschläge Wind Luftdruck Luftfeuchtigkeit
    00:00 +11°C° 0 mm 1 m/S 754 mmHg 62%
    01:00 +11°C° 0 mm 1 m/S 753 mmHg 62%
    02:00 +11°C° 0 mm 1 m/S 753 mmHg 62%
    03:00 +11°C° 0 mm 1 m/S 753 mmHg 62%
    04:00 +11°C° 0 mm 1 m/S 753 mmHg 62%
    05:00 +10°C° 0 mm 1 m/S 754 mmHg 63%
    06:00 +9°C° 0 mm 2 m/S 754 mmHg 64%
    07:00 +9°C° 0 mm 2 m/S 754 mmHg 66%
    08:00 +10°C° 0 mm 2 m/S 754 mmHg 62%
    09:00 +12°C° 0 mm 3 m/S 755 mmHg 58%
    10:00 +13°C° 0 mm 3 m/S 755 mmHg 54%
    11:00 +14°C° 0 mm 3 m/S 755 mmHg 53%
    12:00 +15°C° 0 mm 4 m/S 755 mmHg 53%
    13:00 +15°C° 0 mm 4 m/S 755 mmHg 52%
    14:00 +15°C° 0 mm 4 m/S 755 mmHg 55%
    15:00 +14°C° 0 mm 4 m/S 755 mmHg 58%
    16:00 +14°C° 0 mm 4 m/S 755 mmHg 61%
    17:00 +12°C° 0 mm 4 m/S 755 mmHg 65%
    18:00 +11°C° 0 mm 3 m/S 756 mmHg 68%
    19:00 +10°C° 0 mm 2 m/S 756 mmHg 72%
    20:00 +10°C° 0 mm 3 m/S 757 mmHg 75%
    21:00 +9°C° 0 mm 3 m/S 757 mmHg 78%
    22:00 +9°C° 0 mm 3 m/S 758 mmHg 81%
    23:00 +8°C° 0 mm 3 m/S 758 mmHg 81%
    Mehr zeigen